Regional Weather Roundup
Issued by NWS

Home | Current Version | Previous Version | Text Only | Print | Product List | Glossary On
Versions: 1 2 3 4 5 6 7 8 9 10 11 12 13 14 15 16 17 18 19 20 21 22 23 24 25 26 27 28 29 30 31 32 33 34 35 36 37 38 39 40 41 42 43 44 45 46 47 48 49 50
000
ASUS43 KDMX 012007
RWRIA

WEATHER ROUNDUP FOR IOWA
NATIONAL WEATHER SERVICE DES MOINES IA
300 PM CDT MON JUN 01 2015

NOTE: "FAIR" INDICATES FEW OR NO CLOUDS BELOW 12,000 FEET WITH NO
SIGNIFICANT WEATHER AND/OR OBSTRUCTIONS TO VISIBILITY.

* - THESE STATIONS ARE NOT NWS STATIONS...THUS NOT UNDER NWS
QUALITY CONTROL.  THEY ALSO DO NOT REPORT WEATHER SUCH
AS PRECIPITATION OR FOG.

IAZ001>003-012>014-020>022-031>034-043>046-012100-
   NORTHWEST IOWA

CITY           SKY/WX    TMP DP  RH WIND       PRES   REMARKS
CARROLL *      SUNNY     72  48  43 SE10G21   30.13F
CHEROKEE *     SUNNY     73  50  43 S16G22    30.11F
DENISON *      SUNNY     72  52  49 S14       30.10F
LE MARS *      SUNNY     75  52  43 S12G25    30.09F
ORANGE CITY *  SUNNY     73  48  40 S12G18    30.09F
SHELDON *      SUNNY     75  46  35 SE18G26   30.08F
SIOUX CITY     SUNNY     76  51  41 SE15G24   30.08F
SPENCER        SUNNY     74  48  39 S12G22    30.12F
$$

IAZ055>058-069>071-079>083-090>094-012100-
   SOUTHWEST IOWA

CITY           SKY/WX    TMP DP  RH WIND       PRES   REMARKS
ATLANTIC *     SUNNY     70  50  49 SE9       30.14F
AUDUBON *      SUNNY     72  50  46 SE9       30.15F
CLARINDA *     SUNNY     72  52  49 S7G15     30.15F
COUNCIL BLFS * SUNNY     72  55  56 SE10      30.12F
CRESTON *      SUNNY     68  48  49 SE12      30.15F
HARLAN  *      SUNNY     72  50  46 SE10G21   30.16F
LAMONI         SUNNY     72  52  49 VRB3      30.15F
RED OAK *      SUNNY     72  54  53 E6G14     30.13F
SHENANDOAH *   MOSUNNY   72  54  53 SE12      30.14F
$$

IAZ047>049-059>061-072>074-084-012100-
   CENTRAL IOWA

CITY           SKY/WX    TMP DP  RH WIND       PRES   REMARKS
AMES           SUNNY     71  42  35 MISG      30.16F
ANKENY *       SUNNY     70  43  37 CALM      30.15F
CHARITON *     SUNNY     68  52  56 E9        30.16F
DES MOINES     MOSUNNY   71  42  35 SE8       30.16S
GRINNELL*      SUNNY     68  48  49 SE9       30.17F
KNOXVILLE *    SUNNY     70  46  43 SE10      30.15F
MARSHALLTOWN   SUNNY     69  43  38 VRB5      30.16F
PELLA *        SUNNY     70  52  52 SE7       30.16F
PERRY *          N/A     70  45  40 S8        30.15F
$$

IAZ004>006-015-016-023>025-035-036-012100-
   NORTH CENTRAL IOWA

CITY           SKY/WX    TMP DP  RH WIND       PRES   REMARKS
ALGONA *       SUNNY     70  12  11 SE14G21   30.15F
CLARION *      SUNNY     70  37  30 E12G17    30.17S
ESTHERVILLE    SUNNY     70  48  45 SE12G22   30.13F
FORT DODGE *   SUNNY     72  46  40 SE9G16    30.16F
MASON CITY     SUNNY     69  37  30 E9G18     30.19F
FOREST CITY *  SUNNY     64  41  42 SE8       30.17F
IOWA FALLS *     N/A     70  37  30 SE7G17    30.18F
$$

IAZ007>011-017>019-026>030-037>042-050>054-066-012100-
   NORTHEAST IOWA

CITY           SKY/WX    TMP DP  RH WIND       PRES   REMARKS
CEDAR RAPIDS   SUNNY     68  44  42 E9G17     30.17F
CHARLES CITY * SUNNY     68  41  37 SE13      30.19F
CLINTON *      SUNNY     66  45  45 E10       30.21F
DECORAH *      SUNNY     66  39  37 VRB6G14   30.20S
DUBUQUE        SUNNY     66  39  37 E8        30.20F
MONTICELLO *   SUNNY     68  36  30 SE8       30.19S
OELWEIN *      SUNNY     68  37  32 SE10      30.19F
WATERLOO       SUNNY     69  44  40 SE9G16    30.17F
$$

IAZ064-065-067-068-078-012100-
   EAST CENTRAL IOWA

CITY           SKY/WX    TMP DP  RH WIND       PRES   REMARKS
DAVENPORT      MOSUNNY   69  45  41 E12       30.18F
IOWA CITY      SUNNY     70  47  43 SE7       30.18F
MT. PLEASANT * CLOUDY    70  48  46 E7        30.17F
MUSCATINE *    CLOUDY    72  46  40 VRB5G14   30.17F
QUAD CITIES    CLOUDY    69  48  47 E7        30.17F
$$

IAZ062-063-075>077-085>089-095>099-012100-
   SOUTHEAST IOWA

CITY           SKY/WX    TMP DP  RH WIND       PRES   REMARKS
BURLINGTON     PTSUNNY   70  54  56 E9G18     30.16F
FAIRFIELD *    MOSUNNY   68  52  56 E8G20     30.17F
FORT MADISON *   N/A     68  55  64 E7        30.17F
KEOKUK *       PTSUNNY   66  55  68 VRB7G13   30.16F
OSKALOOSA *    PTSUNNY   70  52  52 E12       30.16F
CENTERVILLE *  SUNNY     64  64 100 NE6       30.18F
OTTUMWA        PTSUNNY   68  53  58 E9G18     30.16S
WASHINGTON *   MOSUNNY   70  46  43 CALM      30.18F
$$

ABBREVIATIONS USED IN REMARKS
   TC - TEMPERATURES IN CELSIUS
  WCI - WIND CHILL INDEX
   HX - HEAT INDEX
  VSB - VISIBILITY
$$



USA.gov is the U.S. government's official web portal to all federal, state and local government web resources and services.